Weather in Achiry

Russia / Tyumen Oblast     58°47′32″N   67°18′33″E
temp.,
°C
wind,
m/s
gust,
m/s
humid.,
%
clouds,
%
prec.,
mm/h
press.,
hPa
HPBL,
m
8 march, mon
mon823:00−13ne1297100 0.0 100420
02:00−14nnw2497100 0.2 100389
05:00−15nw3697100 0.3 1003159
08:00−19wnw359990 0.0 1004114
11:00−14wnw249493 0.1 1006262
14:00−11wsw358896 0.1 1006675
17:00−11sw269098 0.1 1007526
20:00−13s2895100 0.0 1007209
9 march, tue
tue923:00−13s389596 0.1 1006304
02:00−13sse399596 0.1 1004389
05:00−12sse4119598 0.4 1003440
08:00−8ssw41193100 0.3 1002570
11:00−6sw599098 0.4 1001732
14:00−4sw4785100 0.1 10011044
17:00−5wsw2689100 0.2 1002250
20:00−10w349436 0.1 100595
10 march, wed
wed1023:00−14wnw379651 0.1 1008142
02:00−20wnw239814 0.0 101045
05:00−22nw229910 0.0 101120
08:00−22nne119899 0.0 101120
11:00−17nne229295 0.0 1011224
14:00−16nne3494100 0.0 1010270
17:00−17nne3695100 0.0 1008269
20:00−19nne3795100 0.0 1007236
11 march, thu
thu1123:00−20nne4896100 0.0 1007273
02:00−22nne4995100 0.0 1007279
05:00−26n489598 0.0 1007231
08:00−27n479695 0.0 1008236
11:00−25n479596 0.0 1009255
14:00−22n479149 0.0 1010380
17:00−22n369269 0.0 1011393
20:00−27nnw229689 0.0 101319
12 march, fri
fri1223:00−28wnw129474 0.0 101419
02:00−27sw1296100 0.0 101419
05:00−26ssw239994 0.0 101450
08:00−21ssw379896 0.1 1014200
11:00−15sw369495 0.2 1015361
14:00−11sw3691100 0.1 1016547
17:00−9wsw3791100 0.1 1017684
20:00−11wsw2295100 0.1 101837